This demonstration page uses our WeatherBlox Daily Observations layout. Learn more.

Left ArrowRight Arrow

39.51506, -84.39828

Hourly Observations for May 18, 2017

Temp ( °F °C ) Dew Point ( °F °C ) Humidity (%) Winds ( mph kmh ) Pressure ( in mb ) Visibility ( mi km ) Precip ( " mm )
12:15 am 00:15 Partly Cloudy 80 26.5 55 12.8 43 43 S 12 19 29.85 1011 10 16 N/A
12:35 am 00:35 Mostly Cloudy 80 26.5 55 12.7 42 42 S 12 19 29.85 1011 10 16 N/A
12:55 am 00:55 Mostly Cloudy 78 25.8 55 12.8 45 45 S 10 17 29.85 1011 10 16 N/A
1:15 am 01:15 Partly Cloudy 77 25.2 55 12.5 45 45 S 10 17 29.85 1011 10 16 N/A
1:35 am 01:35 Clear 77 25.1 55 12.8 46 46 SSW 12 19 29.85 1011 10 16 N/A
1:55 am 01:55 Clear 77 25.1 56 13.1 47 47 SSW 10 17 29.85 1011 10 16 N/A
2:15 am 02:15 Clear 77 25.1 56 13.5 49 49 S 10 17 29.85 1011 10 16 N/A
2:35 am 02:35 Clear 77 25.1 57 13.7 49 49 S 10 17 29.85 1011 10 16 N/A
2:55 am 02:55 Clear 77 25.1 57 13.7 49 49 S 9 15 29.85 1011 10 16 N/A
3:15 am 03:15 Clear 77 24.9 58 14.3 52 52 S 9 15 29.85 1011 10 16 N/A
3:35 am 03:35 Clear 74 23.6 57 14 55 55 S 7 11 29.85 1011 10 16 N/A
3:55 am 03:55 Clear 74 23.6 56 13.6 54 54 S 9 15 29.85 1011 10 16 N/A
4:15 am 04:15 Clear 74 23.6 58 14.4 56 56 S 8 13 29.88 1012 10 16 N/A
4:35 am 04:35 Partly Cloudy 74 23.6 58 14.6 57 57 S 8 13 29.88 1012 10 16 N/A
4:50 am 04:50 Partly Cloudy 74 23.6 58 14.7 58 58 S 7 11 29.88 1012 10 16 N/A
5:15 am 05:15 Mostly Cloudy 74 23.6 57 14.1 55 55 S 8 13 29.88 1012 10 16 N/A
5:35 am 05:35 Cloudy 76 24.3 58 14.2 53 53 S 9 15 29.88 1012 10 16 N/A
5:55 am 05:55 Cloudy 75 23.9 58 14.3 55 55 S 7 11 29.88 1012 10 16 N/A
6:15 am 06:15 Cloudy 74 23.6 58 14.3 56 56 S 9 15 29.88 1012 10 16 N/A
6:35 am 06:35 Cloudy 74 23.6 59 14.8 58 58 S 8 13 29.88 1012 10 16 N/A
6:55 am 06:55 Mostly Cloudy 74 23.6 60 15.5 61 61 S 10 17 29.88 1012 10 16 N/A
7:15 am 07:15 Mostly Cloudy 76 24.7 61 16.3 60 60 S 12 19 29.88 1012 10 16 N/A
7:35 am 07:35 Mostly Cloudy 77 25.1 62 16.9 60 60 SSW 12 19 29.91 1013 10 16 N/A
7:55 am 07:55 Cloudy 77 25.1 63 17.1 61 61 SSW 12 19 29.91 1013 10 16 N/A
8:15 am 08:15 Cloudy 76 24.7 63 17.2 63 63 SSW 10 17 29.91 1013 10 16 N/A
8:35 am 08:35 Cloudy 76 24.2 62 16.7 63 63 SW 9 15 29.91 1013 10 16 N/A
8:55 am 08:55 Cloudy with Rain 73 23 66 18.7 77 77 SW 9 15 29.94 1014 5 8 N/A
9:15 am 09:15 Cloudy with Heavy Rain 72 22.3 65 18.1 77 77 SSW 14 22 29.94 1014 7 11 N/A
9:35 am 09:35 Mostly Cloudy with Drizzle 72 22.3 65 18.5 79 79 SW 6 9 29.94 1014 10 16 N/A
9:55 am 09:55 Mostly Cloudy 74 23.6 68 19.8 79 79 S 3 6 29.94 1014 10 16 N/A
10:15 am 10:15 Partly Cloudy 74 23.6 67 19.4 77 77 S 7 11 29.94 1014 10 16 N/A
10:35 am 10:35 Partly Cloudy 74 23.6 66 19.1 76 76 S 8 13 29.94 1014 10 16 N/A
10:55 am 10:55 Mostly Cloudy 74 23.6 65 18.6 74 74 S 8 13 29.94 1014 10 16 N/A
11:15 am 11:15 Partly Cloudy 77 25.1 67 19.2 70 70 SSW 9 15 29.94 1014 10 16 N/A
11:35 am 11:35 Partly Cloudy 77 25.1 64 18 65 65 SSW 18 30 29.94 1014 10 16 N/A
11:55 am 11:55 Mostly Cloudy 77 25.1 65 18.3 66 66 SSW 12 19 29.94 1014 10 16 N/A
12:15 pm 12:15 Partly Cloudy 79 26 66 18.8 65 65 SSW 14 22 29.94 1014 10 16 N/A
12:35 pm 12:35 Partly Cloudy 80 26.5 65 18.3 61 61 SSW 13 20 29.94 1014 10 16 N/A
12:55 pm 12:55 Partly Cloudy 80 26.5 65 18.5 62 62 SSW 15 24 29.94 1014 10 16 N/A
1:15 pm 13:15 Partly Cloudy 80 26.5 64 17.6 58 58 SSW 14 22 29.94 1014 10 16 N/A
1:35 pm 13:35 Mostly Cloudy 80 26.5 63 17.3 57 57 SSW 20 31 29.94 1014 10 16 N/A
1:55 pm 13:55 Mostly Cloudy 80 26.5 64 17.8 59 59 SSW 15 24 29.94 1014 10 16 N/A
2:15 pm 14:15 Partly Cloudy 81 27.1 64 18 58 58 SSW 14 22 29.94 1014 10 16 N/A
2:35 pm 14:35 Mostly Cloudy 80 26.5 64 17.6 58 58 SSW 13 20 29.91 1013 10 16 N/A
2:55 pm 14:55 Mostly Cloudy 80 26.5 64 17.8 59 59 SSW 14 22 29.91 1013 10 16 N/A
3:15 pm 15:15 Mostly Cloudy 81 27.2 64 17.9 57 57 SSW 15 24 29.91 1013 10 16 N/A
3:35 pm 15:35 Mostly Cloudy 81 27.2 64 17.5 55 55 SSW 17 28 29.91 1013 10 16 N/A
3:55 pm 15:55 Mostly Cloudy 81 27.2 64 17.6 56 56 SSW 15 24 29.91 1013 10 16 N/A
4:15 pm 16:15 Mostly Cloudy 81 27.4 63 17.1 53 53 SSW 18 30 29.88 1012 10 16 N/A
4:35 pm 16:35 Partly Cloudy 82 28 63 17.2 52 52 SSW 17 28 29.88 1012 10 16 N/A
4:55 pm 16:55 Mostly Cloudy 82 28 64 17.7 54 54 SW 18 30 29.88 1012 10 16 N/A
5:15 pm 17:15 Partly Cloudy 82 28 62 16.8 51 51 SW 15 24 29.88 1012 10 16 N/A
5:35 pm 17:35 Partly Cloudy 83 28.3 63 17.1 51 51 SSW 15 24 29.88 1012 10 16 N/A
5:55 pm 17:55 Partly Cloudy 83 28.2 62 16.4 49 49 SW 12 19 29.88 1012 10 16 N/A
6:15 pm 18:15 Sunny 82 28 61 16 48 48 SSW 16 26 29.88 1012 10 16 N/A
6:35 pm 18:35 Partly Cloudy 82 28 60 15.8 47 47 SW 13 20 29.88 1012 10 16 N/A
6:55 pm 18:55 Sunny 81 27.2 62 16.8 53 53 SSW 13 20 29.91 1013 10 16 N/A
7:15 pm 19:15 Sunny 81 27.2 63 17.2 54 54 SSW 13 20 29.91 1013 10 16 N/A
7:35 pm 19:35 Sunny 80 26.5 63 17 56 56 SSW 9 15 29.91 1013 10 16 N/A
7:55 pm 19:55 Sunny 80 26.5 63 17 56 56 SSW 10 17 29.91 1013 10 16 N/A
8:15 pm 20:15 Sunny 80 26.5 64 17.5 58 58 SSW 9 15 29.91 1013 10 16 N/A
8:35 pm 20:35 Sunny 79 26.3 65 18.2 61 61 SSW 8 13 29.91 1013 10 16 N/A
8:55 pm 20:55 Clear 77 25.1 65 18.3 66 66 SSW 7 11 29.91 1013 10 16 N/A
9:15 pm 21:15 Partly Cloudy 74 23.6 64 17.8 70 70 WSW 3 6 29.91 1013 10 16 N/A
9:35 pm 21:35 Mostly Cloudy 74 23.6 64 17.9 70 70 SSW 5 7 29.91 1013 10 16 N/A
9:55 pm 21:55 Mostly Cloudy 74 23.6 64 17.9 70 70 SSW 3 6 29.91 1013 10 16 N/A
10:15 pm 22:15 Partly Cloudy 74 23.6 65 18.2 72 72 S 5 7 29.91 1013 10 16 N/A
10:35 pm 22:35 Mostly Cloudy 74 23.6 66 19 75 75 WSW 3 6 29.94 1014 10 16 N/A
10:55 pm 22:55 Cloudy 74 23.6 66 18.9 75 75 SSW 5 7 29.94 1014 10 16 N/A
11:15 pm 23:15 Cloudy 74 23.6 67 19.3 77 77 N N/A 29.94 1014 10 16 N/A
11:35 pm 23:35 Mostly Cloudy 74 23.6 68 19.8 79 79 SSW 6 9 29.94 1014 10 16 N/A
11:55 pm 23:55 Partly Cloudy 74 23.6 67 19.5 78 78 N N/A 29.94 1014 10 16 N/A

Powered by AerisWeather